Regional Weather Roundup
Issued by NWS

Home | Current Version | Previous Version | Graphics & Text | Print | Product List | Glossary On
Versions: 1 2 3 4 5 6 7 8 9 10 11 12 13 14 15 16 17 18 19 20 21 22 23 24 25 26 27 28 29 30 31 32 33 34 35 36 37 38 39 40 41 42 43 44 45 46 47 48 49 50
000
ASUS43 KMKX 250500
RWRWI

WISCONSIN REGIONAL WEATHER ROUNDUP
NATIONAL WEATHER SERVICE MILWAUKEE/SULLIVAN WI
1200 AM CDT SAT MAR 25 2017

NOTE: "FAIR" INDICATES FEW OR NO CLOUDS BELOW 12,000 FEET WITH NO
SIGNIFICANT WEATHER AND/OR OBSTRUCTIONS TO VISIBILITY.

WIZ001-002-006>008-014>016-023>028-250600-
NORTHWEST WISCONSIN

CITY           SKY/WX    TMP DP  RH WIND       PRES   REMARKS
SUPERIOR ARPT  CLOUDY    35  33  94 NE8       30.24S WCI  28
ASHLAND        CLOUDY    34  32  92 NE10      30.24S WCI  26
HAYWARD        CLOUDY    36  29  75 NE8G16    30.19F WCI  30
SIREN          CLOUDY    36  30  78 E5        30.20S WCI  32
CUMBERLAND     CLOUDY    34  30  86 NE8       30.17S WCI  27
RICE LAKE      CLOUDY    36  32  84 CALM      30.19F
CHETEK         CLOUDY    36  32  85 NE3       30.18S
LADYSMITH      CLOUDY    36  32  86 E10       30.19S WCI  28
EAU CLAIRE     NOT AVBL
MENOMONIE      CLOUDY    39  34  81 NE6       30.17S WCI  35
NEW RICHMOND   CLOUDY    37  31  80 NE8       30.16F WCI  30
OSCEOLA        CLOUDY    38  32  79 E3        30.21R
$$

WIZ003>005-009-010-017-018-250600-
NORTH CENTRAL WISCONSIN

CITY           SKY/WX    TMP DP  RH WIND       PRES   REMARKS
MANITOWISH WTR CLOUDY    32  32 100 NE7       30.18F WCI  26
ARBOR VITAE    CLOUDY    34  32  93 NE7       30.17F WCI  28
WOODRUFF       CLOUDY    34  32  93 NE7       30.17F WCI  28
RHINELANDER    CLOUDY    34  32  92 E9        30.17F WCI  27
EAGLE RIVER    CLOUDY    32  32  98 NE9       30.17F WCI  25
LAND O LAKES   CLOUDY    33  32  98 NE5       30.20F WCI  28
PHILLIPS       CLOUDY    33  32  94 NE10G16   30.16F WCI  25
TOMAHAWK       CLOUDY    33  31  90 NE5       30.17S WCI  29
MEDFORD        CLOUDY    34  32  93 NE7       30.15S WCI  28
MERRILL        CLOUDY    35  32  90 E10       30.17S WCI  27
$$

WIZ029-030-035-036-043>047-250600-
CENTRAL WISCONSIN

CITY           SKY/WX    TMP DP  RH WIND       PRES   REMARKS
WAUSAU         CLOUDY    35  32  88 NE7       30.16R WCI  29
MOSINEE        CLOUDY    34  34 100 NE8       30.16S WCI  27
MARSHFIELD     CLOUDY    36  32  85 NE10      30.14R WCI  28
STEVENS POINT  CLOUDY    34  34  99 E9        30.16F WCI  27
WAUPACA        DRIZZLE   38  35  91 NE5       30.18S WCI  34
WAUTOMA        LGT RAIN  36  35  96 NE9       30.18R WCI  29
WISC RAPIDS    CLOUDY    37  36  96 E8        30.17S WCI  31
CAMP DOUGLAS   LGT RAIN  37  36  93 E6        30.14S WCI  33
$$

WIZ011>013-019>022-031-037>040-048>050-250600-
NORTHEAST WISCONSIN

CITY           SKY/WX    TMP DP  RH WIND       PRES   REMARKS
ANTIGO         CLOUDY    32  31  97 NE13      30.16S WCI  23
SHAWANO        CLOUDY    37  33  87 NE10      30.19R WCI  29
OCONTO         CLOUDY    35  32  90 NE9       30.19R WCI  27
STURGEON BAY   LGT RAIN  34  32  92 NE10      30.20R WCI  26
GREEN BAY      LGT RAIN  36  35  96 NE17      30.19R WCI  26
MANITOWOC      NOT AVBL
APPLETON       DRIZZLE   34  34 100 NE10G16   30.16R WCI  26
CLINTONVILLE   DRIZZLE   34  34 100 NE10      30.18S WCI  26
OSHKOSH        RAIN      35  33  92 NE15      30.16F FOG     WCI  25
$$

WIZ032>034-041-042-053>061-250600-
SOUTHWEST WISCONSIN

CITY           SKY/WX    TMP DP  RH WIND       PRES   REMARKS
LA CROSSE      LGT RAIN  40  38  93 E3        30.13F
SPARTA         LGT RAIN  37  37  99 E7        30.15S WCI  32
VIROQUA        CLOUDY    37  36  99 NE14G20   30.10S WCI  28
BOSCOBEL       CLOUDY    39  38  96 NE8       30.10S FOG     WCI  33
PRAIRIE DU CHI DRIZZLE   38  37  96 E9        30.08F WCI  32
PLATTEVILLE    CLOUDY    39  39 100 NE16      30.06F WCI  31
$$

WIZ056-057-062-063-064-067-068-250600-
SOUTH CENTRAL WISCONSIN

CITY           SKY/WX    TMP DP  RH WIND       PRES   REMARKS
REEDSBURG      CLOUDY    36  36 100 NE10      30.12F FOG     WCI  28
BARABOO/DELLS  LGT RAIN  36  34  95 NE12      30.12F WCI  27
LONE ROCK      CLOUDY    39  35  86 E15       30.12R FOG     WCI  31
MINERAL POINT  CLOUDY    37  37 100 NE10G16   30.07S FOG     WCI  30
MADISON        CLOUDY    37  34  89 MISG      30.12R
MIDDLETON      CLOUDY    38  36  91 NE9       30.13R WCI  32
WATERTOWN      CLOUDY    37  36  94 NE7       30.12S WCI  32
MONROE         LGT RAIN  37  37 100 NE17      30.07S WCI  28
JANESVILLE     CLOUDY    41  39  93 NE13      30.09R
$$

WIZ051-052-058>065-066-070>072-250600-
SOUTHEAST WISCONSIN

CITY           SKY/WX    TMP DP  RH WIND       PRES   REMARKS
MILWAUKEE      LGT RAIN  38  34  85 N15G25    30.10F WCI  29
WAUKESHA       CLOUDY    36  32  87 NE14G21   30.12F WCI  27
MILWAUKEE/TIMM CLOUDY    36  32  87 NE15G22   30.13S WCI  26
RACINE         CLOUDY    37  34  89 N18G28    30.11F WCI  27
KENOSHA        CLOUDY    38  35  89 N17G24    30.08F WCI  28
FOND DU LAC    LGT RAIN  37  33  85 NE10      30.15F WCI  30
SHEBOYGAN      LGT RAIN  36  33  89 NE15      30.16S WCI  27
WEST BEND      CLOUDY    36  34  93 NE14      30.14S WCI  27
JUNEAU         CLOUDY    36  33  90 NE9       30.15R WCI  29
$$

LSZ147-162-250600-
LAKE SUPERIOR

STATION/POSITION TIME  TEMP    WIND        PRES    WAVE
                       AIR SEA DIR/SP/G            HT/PER
                 (UTC) (F)     (DEG/KT/KT) (MB)    (FT/S)
DEVILS ISLAND    0400   35      80/ 18/ 21 1025.6S
PORT WING        0440   35      50/  7/ 10 1024.0F
SAXON HARBOR     0440   34      50/  9/ 11 1023.7F
$$

LMZ867-665-643>646-250600-
LAKE MICHIGAN

STATION/POSITION TIME  TEMP    WIND        PRES    WAVE
                       AIR SEA DIR/SP/G            HT/PER
                 (UTC) (F)     (DEG/KT/KT) (MB)    (FT/S)
CHAMBERS ISLAND  0440   33     350/ 15/ 18 1021.7F
NORTHPORT PIER   0430   34      10/ 12/ 14 1022.4F
SISTER BAY       0405   34     360/ 14/ 19   N/A
KEWAUNEE LAKESHO 0424   36      30/ 10/ 16 1021.4
SHEBOYGAN LAKESH 0400   36      10/ 16/ 17 1021.7R
PORT WASHINGTON  0440   38      10/ 10/ 19 1021.7F
MILWAUKEE LAKESH 0430   37      10/ 17/ 21   N/A
KENOSHA   LAKESH 0400   38     360/ 18/ 21 1019.3
$$

TC  - TEMPERATURE IN CELSIUS
VSB - VISIBILITY IN STATUTE MILES
WCI - WIND CHILL INDEX
HX  - HEAT INDEX





USA.gov is the U.S. government's official web portal to all federal, state and local government web resources and services.